Location: Cortada Guamacho
(10.5667°N, 67.0833°W)
Time: 08:36:28
(UTC+00:00)

USA 32 - Visible Passes

Search period start: 26 June 2022 00:00
Search period end: 06 July 2022 00:00
Orbit: 777 x 782 km, 85.0° (Epoch: 22 June)

Date Brightness Start Highest point End Pass type
(mag) Time Alt. Az. Time Alt. Az. Time Alt. Az.
29 Jun 6.6 01:59:46 15° N 01:59:46 15° N 02:00:35 10° N visible
30 Jun 6.2 01:26:30 17° NNE 01:26:30 17° NNE 01:27:37 10° NNE visible
01 Jul 6.2 00:53:13 14° NE 00:53:13 14° NE 00:54:01 10° NNE visible
02 Jul 6.3 02:00:21 20° NNW 02:00:21 20° NNW 02:02:07 10° NNW visible
03 Jul 5.5 01:26:59 31° N 01:26:59 31° N 01:29:38 10° N visible
04 Jul 5.1 00:53:33 32° NE 00:53:33 32° NE 00:56:33 10° NNE visible
05 Jul 5.4 00:20:05 21° ENE 00:20:05 21° ENE 00:22:45 10° NE visible
05 Jul 6.4 02:00:33 19° WNW 02:00:33 19° WNW 02:03:07 10° NW visible
05 Jul 6.0 23:46:32 10° E 23:46:32 10° E 23:46:54 10° ENE visible
